{"data":{"norad_id":49280,"epoch":"2026-09-19T23:13:31.264608Z","epoch_age_seconds":73059,"freshness":"FRESH","line1":"1 49280U 21090B   26262.96772297 -.00000004  00000+0 -41413-4 0  9994","line2":"2 49280  87.9143 255.5322 0002103  81.7588 278.3783 13.20770435243553","mean_motion":13.20770435,"eccentricity":0.0002103,"inclination_deg":87.9143,"raan_deg":255.5322,"arg_perigee_deg":81.7588,"mean_anomaly_deg":278.3783,"bstar":-4.1413e-5,"rev_number":24355,"period_min":109.02727391835,"perigee_km":1180.1887805432,"apogee_km":1183.3684810575,"semimajor_km":7559.9156308003,"source":"CELESTRAK","updated_at":"2026-09-20T09:00:44.668352Z"}}